Change the Weather History Date:

Tuesday, October 9, 2012

  Actual Average (KLAF) Record (KLAF)
Temperature  
Mean Temperature 52 °F 57 °F  
Max Temperature 64 °F 68 °F 87 °F (2010)
Min Temperature 39 °F 45 °F 27 °F (2000)
Degree Days  
Heating Degree Days 14 9  
Month to date heating degree days 72  
Since 1 July heating degree days 157  
Cooling Degree Days 0 1  
Month to date cooling degree days 10  
Year to date cooling degree days 975  
Growing Degree Days 2 (Base 50)    
Moisture  
Dew Point 38 °F    
Average Humidity 62    
Maximum Humidity 82    
Minimum Humidity 40    
Precipitation  
Precipitation 0.00 in 0.10 in 0.53 in (1993)
Month to date precipitation 0.90  
Year to date precipitation 29.11  
Sea Level Pressure  
Sea Level Pressure 29.97 in    
Wind  
Wind Speed 10 mph (SSW)    
Max Wind Speed 23 mph    
Max Gust Speed 29 mph    
Visibility 10 miles    
Events Rain    
T = Trace of Precipitation, MM = Missing Value Source: NWS Daily Summary

Daily Weather History Graph

Daily Weather History Graph

Search for Another Location

Airport or City:

Trip Planner

Search our weather history database for the weather conditions in past years. The results will help you decide how hot, cold, wet, or windy it might be!

Date:

Astronomy

Oct. 09, 2012 Rise Set
Actual Time 6:55 AM CDT 6:18 PM CDT
Civil Twilight 6:28 AM CDT 6:46 PM CDT
Nautical Twilight 5:56 AM CDT 7:17 PM CDT
Astronomical Twilight 5:25 AM CDT 7:49 PM CDT
Moon 12:31 AM CDT (10/9) 2:46 PM CDT (10/9)
Length of Visible Light 12h 18m
Length of Day
11h 23m
Last Quarter, 36% of the Moon is Illuminated
Oct 9
Last Quarter
Oct 15
New
Oct 21
First Quarter
Oct 29
Full
Nov 6
Last Quarter

Hourly Weather History & Observations

Time (CDT) Temp. Windchill Dew Point Humidity Pressure Visibility Wind Dir Wind Speed Gust Speed Precip Events Conditions
12:15 AM 39.7 °F 36.5 °F 32.0 °F 74% 30.06 in 10.0 mi SSE 4.6 mph - N/A   Clear
12:35 AM 39.2 °F 35.9 °F 32.0 °F 75% 30.06 in 10.0 mi SSE 4.6 mph - N/A   Clear
12:55 AM 39.9 °F 35.8 °F 32.0 °F 73% 30.06 in 10.0 mi South 5.8 mph - N/A   Clear
1:15 AM 40.6 °F 36.0 °F 33.3 °F 75% 30.06 in 10.0 mi South 6.9 mph - N/A   Clear
1:35 AM 41.2 °F 37.3 °F 33.4 °F 74% 30.06 in 10.0 mi South 5.8 mph - N/A   Unknown
1:55 AM 41.0 °F 37.1 °F 33.3 °F 74% 30.06 in 10.0 mi South 5.8 mph - N/A   Unknown
2:15 AM 42.3 °F 37.9 °F 33.4 °F 71% 30.06 in 10.0 mi South 6.9 mph - N/A   Unknown
2:35 AM 41.9 °F 37.5 °F 33.4 °F 72% 30.05 in 10.0 mi South 6.9 mph - N/A   Unknown
2:55 AM 41.5 °F 37.1 °F 33.3 °F 72% 30.05 in 10.0 mi SSW 6.9 mph - N/A   Clear
3:15 AM 41.4 °F 36.8 °F 33.8 °F 74% 30.05 in 10.0 mi South 6.9 mph - N/A   Clear
3:35 AM 40.6 °F 36.0 °F 33.4 °F 75% 30.05 in 10.0 mi South 6.9 mph - N/A   Clear
3:55 AM 39.9 °F 35.1 °F 33.4 °F 78% 30.05 in 10.0 mi South 6.9 mph - N/A   Clear
4:15 AM 39.9 °F 35.1 °F 33.8 °F 79% 30.05 in 10.0 mi South 6.9 mph - N/A   Clear
4:35 AM 39.7 °F 34.3 °F 34.0 °F 80% 30.04 in 10.0 mi South 8.1 mph - N/A   Clear
4:55 AM 40.6 °F 35.4 °F 34.3 °F 78% 30.04 in 10.0 mi South 8.1 mph - N/A   Clear
5:15 AM 41.0 °F 35.8 °F 34.7 °F 78% 30.04 in 10.0 mi South 8.1 mph - N/A   Clear
5:35 AM 40.6 °F 36.0 °F 34.7 °F 79% 30.04 in 10.0 mi South 6.9 mph - N/A   Clear
5:55 AM 40.1 °F 35.3 °F 34.3 °F 80% 30.04 in 10.0 mi South 6.9 mph - N/A   Clear
6:15 AM 40.1 °F 35.3 °F 34.5 °F 80% 30.05 in 10.0 mi SSW 6.9 mph - N/A   Clear
6:35 AM 40.1 °F 35.3 °F 34.5 °F 80% 30.05 in 10.0 mi South 6.9 mph - N/A   Clear
6:55 AM 39.9 °F 34.5 °F 34.7 °F 82% 30.05 in 10.0 mi South 8.1 mph - N/A   Clear
7:15 AM 40.1 °F 36.1 °F 34.9 °F 82% 30.05 in 10.0 mi South 5.8 mph - N/A   Clear
7:35 AM 41.0 °F 36.4 °F 35.6 °F 81% 30.05 in 10.0 mi South 6.9 mph - N/A   Clear
7:55 AM 43.2 °F 38.4 °F 36.3 °F 77% 30.06 in 7.0 mi South 8.1 mph - N/A   Clear
8:15 AM 45.7 °F 40.6 °F 37.2 °F 72% 30.05 in 10.0 mi SSW 10.4 mph - N/A   Clear
8:35 AM 47.7 °F - 37.9 °F 69% 30.04 in 10.0 mi SSW 12.7 mph - N/A   Clear
8:55 AM 49.5 °F - 38.1 °F 65% 30.04 in 10.0 mi SSW 12.7 mph - N/A   Clear
9:15 AM 50.9 °F - 38.5 °F 62% 30.04 in 10.0 mi SSW 11.5 mph 17.3 mph N/A   Clear
9:35 AM 52.5 °F - 38.7 °F 59% 30.03 in 10.0 mi SSW 16.1 mph 20.7 mph N/A   Clear
9:55 AM 54.1 °F - 38.8 °F 56% 30.03 in 10.0 mi SSW 16.1 mph 23.0 mph N/A   Clear
10:15 AM 55.8 °F - 39.4 °F 54% 30.03 in 10.0 mi SSW 17.3 mph 20.7 mph N/A   Clear
10:35 AM 57.2 °F - 39.6 °F 52% 30.01 in 10.0 mi SSW 19.6 mph 28.8 mph N/A   Clear
10:55 AM 58.1 °F - 39.4 °F 50% 30.01 in 10.0 mi SSW 20.7 mph 25.3 mph N/A   Clear
11:15 AM 59.2 °F - 40.1 °F 49% 30.01 in 10.0 mi SSW 16.1 mph - N/A   Clear
11:35 AM 59.9 °F - 40.3 °F 48% 30.00 in 10.0 mi SSW 19.6 mph 25.3 mph N/A   Clear
11:55 AM 60.8 °F - 39.7 °F 46% 29.99 in 10.0 mi SSW 18.4 mph 26.5 mph N/A   Clear
12:15 PM 61.5 °F - 40.5 °F 46% 29.98 in 10.0 mi SSW 19.6 mph 24.2 mph N/A   Clear
12:35 PM 61.7 °F - 39.4 °F 44% 29.97 in 10.0 mi South 19.6 mph 25.3 mph N/A   Clear
12:55 PM 62.1 °F - 39.2 °F 43% 29.96 in 10.0 mi SSW 17.3 mph 24.2 mph N/A   Clear
1:15 PM 63.3 °F - 40.5 °F 43% 29.94 in 10.0 mi South 19.6 mph 25.3 mph N/A   Clear
1:35 PM 63.5 °F - 40.3 °F 43% 29.93 in 10.0 mi SSW 19.6 mph 24.2 mph N/A   Clear
1:55 PM 63.3 °F - 39.4 °F 41% 29.93 in 10.0 mi SSW 20.7 mph 27.6 mph N/A   Clear
2:15 PM 64.0 °F - 39.2 °F 40% 29.92 in 10.0 mi SSW 19.6 mph 24.2 mph N/A   Clear
2:35 PM 63.5 °F - 38.8 °F 40% 29.91 in 10.0 mi SSW 17.3 mph 25.3 mph N/A   Clear
2:55 PM 63.0 °F - 39.0 °F 41% 29.91 in 10.0 mi SSW 23.0 mph 27.6 mph N/A   Clear
3:15 PM 62.4 °F - 39.4 °F 43% 29.90 in 10.0 mi South 18.4 mph 27.6 mph N/A   Clear
3:35 PM 62.2 °F - 39.4 °F 43% 29.90 in 10.0 mi South 16.1 mph 25.3 mph N/A   Clear
3:55 PM 62.6 °F - 39.4 °F 42% 29.90 in 10.0 mi SW 19.6 mph 25.3 mph N/A   Clear
4:15 PM 62.2 °F - 39.4 °F 43% 29.90 in 10.0 mi SSW 18.4 mph 25.3 mph N/A   Clear
4:35 PM 61.3 °F - 39.7 °F 45% 29.90 in 10.0 mi South 18.4 mph 25.3 mph N/A   Clear
4:55 PM 61.9 °F - 39.9 °F 44% 29.90 in 10.0 mi SSW 17.3 mph 24.2 mph N/A   Clear
5:15 PM 60.8 °F - 39.9 °F 46% 29.90 in 10.0 mi SSW 13.8 mph 21.9 mph N/A   Clear
5:35 PM 60.1 °F - 40.3 °F 48% 29.89 in 10.0 mi SSW 12.7 mph 17.3 mph N/A   Clear
5:55 PM 58.6 °F - 40.8 °F 52% 29.89 in 10.0 mi South 10.4 mph 17.3 mph N/A   Clear
6:15 PM 56.8 °F - 41.0 °F 55% 29.89 in 10.0 mi SSW 8.1 mph - N/A   Clear
6:35 PM 55.4 °F - 41.0 °F 58% 29.90 in 10.0 mi SSW 8.1 mph - N/A   Clear
6:55 PM 53.8 °F - 41.2 °F 62% 29.90 in 10.0 mi SSW 6.9 mph - N/A   Clear
7:15 PM 52.7 °F - 41.2 °F 65% 29.89 in 10.0 mi South 8.1 mph - N/A   Clear
7:35 PM 53.6 °F - 41.9 °F 65% 29.90 in 10.0 mi SSW 8.1 mph - N/A   Clear
7:55 PM 53.8 °F - 41.9 °F 64% 29.89 in 10.0 mi South 9.2 mph - N/A   Clear
8:15 PM 54.1 °F - 41.5 °F 62% 29.89 in 10.0 mi South 9.2 mph - N/A   Clear
8:35 PM 54.0 °F - 41.5 °F 63% 29.88 in 10.0 mi SSW 10.4 mph - N/A   Clear
8:55 PM 54.5 °F - 41.4 °F 61% 29.88 in 10.0 mi SSW 13.8 mph - N/A   Clear
9:15 PM 54.5 °F - 41.4 °F 61% 29.88 in 10.0 mi SSW 12.7 mph 18.4 mph N/A   Clear
9:35 PM 54.5 °F - 41.4 °F 61% 29.87 in 10.0 mi SSW 12.7 mph 18.4 mph N/A   Clear
9:55 PM 54.1 °F - 41.9 °F 63% 29.88 in 10.0 mi SSW 12.7 mph - N/A   Scattered Clouds
10:15 PM 54.3 °F - 42.1 °F 63% 29.87 in 10.0 mi SSW 12.7 mph 18.4 mph N/A   Mostly Cloudy
10:35 PM 54.5 °F - 42.1 °F 63% 29.88 in 10.0 mi SSW 15.0 mph - N/A   Overcast
10:55 PM 54.5 °F - 42.3 °F 63% 29.88 in 10.0 mi SW 16.1 mph - N/A   Overcast
11:15 PM 51.8 °F - 41.4 °F 68% 29.91 in 10.0 mi NNW 15.0 mph 23.0 mph N/A   Overcast
11:35 PM 47.1 °F - 41.9 °F 82% 29.92 in 10.0 mi NNW 12.7 mph - N/A Rain Light Rain
11:55 PM 46.4 °F 41.1 °F 41.2 °F 82% 29.93 in 10.0 mi NW 11.5 mph 18.4 mph N/A Rain Light Rain